Location: ????????
(48.4751°N, 37.6926°E)
Time: 13:30:34
(UTC+00:00)

Meteor 2-5 Rocket - Pass Details

Date: 20 January 2021
Orbit: 833 x 911 km, 81.2° (Epoch: 26 February)

Event Time Altitude Azimuth Distance (km) Brightness Sun altitude
Rises 15:23:55 0° 198° (SSW) 3,400 7.4 -12.2°
Reaches altitude 10° 15:26:22 10° 201° (SSW) 2,460 6.7 -12.6°
Maximum altitude 15:31:53 66° 284° (WNW) 913 4.1 -13.5°
Drops below altitude 10° 15:37:25 10° 7° (N) 2,456 5.9 -14.3°
Sets 15:39:51 0° 10° (N) 3,394 6.6 -14.7°
